Regional Weather Roundup
Issued by NWS

Home | Current Version | Previous Version | Graphics & Text | Print | Product List | Glossary On
Versions: 1 2 3 4 5 6 7 8 9 10 11 12 13 14 15 16 17 18 19 20 21 22 23 24 25 26 27 28 29 30 31 32 33 34 35 36 37 38 39 40 41 42 43 44 45 46 47 48 49 50
000
ASUS45 KTFX 251810
RWRMT
MONTANA REGIONAL WEATHER ROUNDUP
NATIONAL WEATHER SERVICE GREAT FALLS MT
1200 PM MDT MON SEP 25 2017

NOTE: "FAIR" INDICATES FEW OR NO CLOUDS BELOW 12000 FEET WITH NO
SIGNIFICANT WEATHER AND/OR OBSTRUCTIONS TO VISIBILITY.

MTZ001>007-043-251900-
WEST OF THE DIVIDE

CITY           SKY/WX    TMP DP  RH WIND       PRES   REMARKS
KALISPELL      CLOUDY    56  45  66 S7        30.07F
MISSOULA       CLOUDY    49  44  83 CALM      30.12S
BUTTE          CLOUDY    46  32  58 NE3       30.12F
MULLAN PASS    CLOUDY    45  34  65 VRB6      30.13S
ANACONDA         N/A     54  32  43 S6        30.10S
DEER LODGE       N/A     46  34  61 CALM      30.13F
EUREKA           N/A     57  41  54 MISG      30.06
HAMILTON         N/A     50  37  62 SE6       30.12S
LIBBY            N/A     55  43  62 CALM      30.06F
PLAINS           N/A     55  43  64 MISG      30.09
THOMPSON FALLS   N/A     54  45  71 CALM      30.13S
$$

MTZ008-052>055-251900-
SOUTHWEST MONTANA

CITY           SKY/WX    TMP DP  RH WIND       PRES   REMARKS
BOZEMAN        PTSUNNY   51  30  44 CALM      30.10F
DILLON         CLOUDY    49  31  49 SW7       30.11F
W YELLOWSTONE  CLOUDY    43  23  45 VRB7      30.12F
ENNIS          CLOUDY    50  25  37 VRB5      30.16F
THREE FORKS      N/A     51  34  52 CALM      30.08F
TWIN BRIDGES     N/A     48  29  48 CALM      30.09
$$

MTZ009-010-012-014-046-048-049-054-251900-
EAST SLOPES AND CENTRAL MONTANA

CITY           SKY/WX    TMP DP  RH WIND       PRES   REMARKS
CUT BANK       MOSUNNY   59  36  42 S7        30.02S
GREAT FALLS    SUNNY     57  34  41 SW6       30.03F
MALMSTROM AFB  SUNNY     56  34  42 SW7       30.04F
HELENA         PTSUNNY   48  35  60 E5        30.09F
BOWMANS CRNR     N/A     53  35  51 S13       30.02F
CHOTEAU          N/A     57  32  38 CALM      30.05S
FAIRFIELD        N/A     55  34  44 CALM      30.03S
POWER            N/A     55  35  47 S7        30.03F
RAYNESFORD       N/A     55  32  41 W8        30.04F
ULM              N/A     57  34  42 W8        30.03F
$$

MTZ011-013-016-021-045-047-050-051-251900-
NORTH CENTRAL MONTANA

CITY           SKY/WX    TMP DP  RH WIND       PRES   REMARKS
HAVRE          SUNNY     58  34  40 SW8       30.04F
LEWISTOWN      SUNNY     53  30  41 VRB3      30.05F
N BAR RANCH      N/A     52  27  37 NE5       30.07F
CHINOOK          N/A     57  43  58 CALM      30.03F
DENTON           N/A     54  33  44 NE5       30.01F
GEYSER           N/A     54  27  35 NE3       30.04F
JUDITH GAP       N/A     50  29  45 CALM      30.05F
WINIFRED         N/A     53  32  44 NW5       30.04F
$$

MTZ017>020-022>027-061-062-251900-
NORTHEAST MONTANA

CITY           SKY/WX    TMP DP  RH WIND       PRES   REMARKS
GLASGOW        CLOUDY    55  39  54 SE15      30.10F
JORDAN           N/A     55  37  50 S12       30.09F
SIDNEY           N/A    N/A N/A N/A MISG        N/A
WOLF POINT     SUNNY     55  38  52 E6        30.13F
MALTA          SUNNY     59  37  44 SE8G14    30.07F
PLENTYWOOD       N/A     48  39  71 CALM      30.15F
POPLAR           N/A     48  41  76 SE8       30.15F
SCOBEY           N/A     54  34  46 S7        30.10
$$

MTZ028>42-056>058-251900-
SOUTHCENTRAL AND SOUTHEAST MONTANA

CITY           SKY/WX    TMP DP  RH WIND       PRES   REMARKS
BAKER          CLOUDY    43  37  79 E5        30.15S
BILLINGS       CLOUDY    51  39  63 S9        30.08F
LIVINGSTON     SUNNY     55  31  39 SW13      30.06F
MILES CITY     LGT RAIN  45  41  86 SE9       30.13F
BIG TIMBER     SUNNY     54  30  40 W15       30.09F
EKALAKA          N/A     43  38  82 SE5       30.10
HARLOWTON        N/A     54  33  43 MISG      30.05F
LAUREL           N/A     54  43  66 S10       30.08F
$$

REGIONAL REPORTS...DAKOTAS

CITY           SKY/WX    TMP DP  RH WIND       PRES   REMARKS
WILLISTON      CLOUDY    51  43  74 CALM      30.15F
MINOT          CLOUDY    52  43  71 CALM      30.15F
DICKINSON      CLOUDY    46  42  86 W6        30.14S
BEACH          PTSUNNY   45  41  87 S5        30.17F
CROSBY         CLOUDY    52  45  76 VRB3      30.17F
TIOGA          CLOUDY    52  43  71 SE6       30.16F
BISMARCK       CLOUDY    53  44  71 CALM      30.15F
GRAND FORKS    CLOUDY    51  47  86 N12       30.13S
FARGO          CLOUDY    52  47  83 N13       30.10S
BUFFALO SD       N/A     47  41  80 VRB3      30.08S
RAPID CITY     CLOUDY    48  43  81 VRB3      30.13F
$$

REGIONAL REPORTS...WYOMING/IDAHO/WASHINGTON

CITY           SKY/WX    TMP DP  RH WIND       PRES   REMARKS
GILLETTE       CLOUDY    44  39  82 W3        30.11F
SHERIDAN       PTSUNNY   51  41  68 VRB5      30.10F
BUFFALO WY     CLOUDY    45  38  76 NE6       30.11F
CODY           CLOUDY    47  32  56 CALM      30.10F
IDAHO FALLS    MOSUNNY   51  34  52 VRB7      30.15S
SALMON         CLOUDY    51  33  50 VRB5      30.15S
BOISE          SUNNY     58  33  39 VRB3      30.13F
SPOKANE        PTSUNNY   61  43  51 S7        30.08S
$$

REGIONAL REPORTS...ALBERTA

CITY           SKY/WX    TMP DP  RH WIND       PRES   REMARKS
EDMONTON       PTSUNNY   63  48  59 W5        29.91S
CALGARY        MOSUNNY   63  39  42 N5        29.97S
LETHBRIDGE     PTSUNNY   61  36  39 NW10G17   29.97F
MEDICINE HAT   PTSUNNY   64  34  32 SW10      29.97F
$$

REGIONAL REPORTS...SASKATCHEWAN

CITY           SKY/WX    TMP DP  RH WIND       PRES   REMARKS
SWIFT CURRENT  SUNNY     59  36  41 S17       30.02F
REGINA         PTSUNNY   57  30  35 S13G21    30.12F
SASKATOON      MOSUNNY   61  41  48 S13G21    30.04F
$$



USA.gov is the U.S. government's official web portal to all federal, state and local government web resources and services.